Location: Observatoire de l'Aigle
(47.0607°N, 71.3152°W)
Time: 09:43:21
(UTC-04:00)

Daily predictions for brighter satellites

Satellite Brightness Start Highest point End
(mag) Time Altitude Azimuth Time Altitude Azimuth Time Altitude Azimuth
CZ-3B DEB 4.1 20:59:59 10° WSW 21:09:44 82° NNW 21:22:58 10° ENE
RESURS DK-1 4.0 21:16:48 10° N 21:20:14 24° NE 21:23:39 10° ESE
NOSS 3-4 (A) 4.2 21:13:39 10° NW 21:20:34 64° WSW 21:27:57 10° SSE
NOSS 3-4 (C) 4.2 21:13:45 10° NW 21:20:40 65° WSW 21:28:03 10° SSE
Cosmos 676 Rocket 4.3 21:18:39 10° SSW 21:23:53 74° WNW 21:29:07 10° NNE
CZ-4B DEB 4.0 21:22:57 10° SSW 21:25:44 36° W 21:28:31 10° NNW
Cosmos 2173 Rocket 4.2 21:20:03 10° N 21:26:08 58° ENE 21:32:13 10° SSE
NOAA 11 4.2 21:20:43 10° SSE 21:26:08 82° ENE 21:31:37 10° NNW
H-2A R/B 4.1 21:24:54 10° E 21:27:28 16° ENE 21:30:00 10° NNE
Abrixas rocket 2.5 21:24:47 10° W 21:28:02 66° N 21:31:16 10° E
Cosmos 1184 Rocket 2.9 21:26:01 10° SSW 21:29:22 82° W 21:32:46 10° N
Cosmos 2082 4.1 21:32:09 10° SW 21:37:45 71° WNW 21:43:25 10° NNE
Cosmos 2208 Rocket 4.1 21:35:25 10° NNW 21:40:45 85° ENE 21:46:09 10° SSE
Cosmos 1802 Rocket 4.1 21:35:41 10° N 21:41:48 66° ENE 21:47:54 10° SSE
Meteor 1-29 4.3 21:39:18 10° N 21:42:34 41° WNW 21:45:49 10° SW
Cosmos 2297 Rocket 2.7 21:39:48 10° SW 21:45:25 67° WNW 21:51:06 10° NNE
Cosmos 2084 3.7 21:44:37 10° S 21:48:18 37° ESE 21:51:51 10° NE
Helios 1B rocket 4.2 21:45:49 10° N 21:49:37 36° WNW 21:53:24 10° SW
Cosmos 1340 Rocket 3.6 21:47:53 10° SSW 21:51:50 54° WNW 21:55:50 10° N
SPOT 1/Viking Rocket 3.6 21:47:02 10° SSE 21:52:08 68° ENE 21:57:16 10° N
Cosmos 1242 Rocket 2.6 21:48:27 10° NNW 21:52:12 83° W 21:55:54 10° S
Cosmos 1570 Rocket 4.3 21:51:25 10° NNW 21:56:43 66° WSW 22:01:55 10° S
Terra 2.7 21:53:06 12° SE 21:57:07 37° ENE 22:01:29 10° N
ERBS 3.7 21:55:33 10° NW 21:58:41 34° NNE 22:01:49 10° E
Cosmos 2263 Rocket 3.9 21:57:14 11° SE 21:59:44 15° E 22:02:45 10° ENE
Cosmos 1300 3.3 21:58:11 10° N 22:01:52 43° ENE 22:04:43 15° SE
Cosmos 1140 Rocket 4.5 21:59:04 10° SW 22:04:05 50° WNW 22:09:06 10° NNE
Cosmos 1867 3.6 22:04:15 10° SSW 22:09:36 63° ESE 22:15:01 10° NE
ATLAS 5 CENTAUR R/B 1.8 22:05:02 10° SW 22:09:43 82° SE 22:14:55 10° NE
Cosmos 332 Rocket 4.0 22:05:15 10° NNW 22:10:07 63° ENE 22:14:00 16° SE
Cosmos 1763 Rocket 4.1 22:05:17 10° NNW 22:10:13 45° ENE 22:14:11 15° SE
Cosmos 2237 Rocket 4.4 22:06:31 10° WNW 22:10:17 19° W 22:14:02 10° SW
Lacrosse 4 Rocket 3.8 22:08:06 10° WSW 22:11:51 29° NW 22:15:41 10° NNE
Cosmos 1408 Rocket 3.5 22:08:11 10° S 22:12:28 79° E 22:16:49 10° NNE
Cosmos 1626 4.1 22:11:35 13° ESE 22:13:00 16° E 22:15:16 10° NE
Cosmos 1603 3.7 22:10:42 10° NNW 22:16:25 84° ENE 22:20:55 16° SSE
Cosmos 2016 Rocket 4.1 22:10:16 10° N 22:16:36 84° W 22:22:33 11° S
Cosmos 1726 2.0 22:13:04 10° N 22:16:47 84° E 22:19:32 17° S
Tiangong 1 1.6 22:14:47 10° SW 22:17:16 29° S 22:18:08 24° SE
Meteor 2-10 4.3 22:12:07 10° N 22:17:39 67° ENE 22:22:12 16° SSE
Cosmos 1076 Rocket 4.3 22:18:32 10° SSW 22:22:48 52° WNW 22:27:05 10° N
Cosmos 2227 Rocket 4.4 22:24:11 10° WSW 22:29:03 29° NW 22:33:57 10° N
Cosmos 1500 Rocket 4.0 22:28:47 19° SSE 22:31:40 46° E 22:35:57 10° NNE
Cosmos 1356 Rocket 4.5 22:27:39 10° SSW 22:31:44 46° WNW 22:35:55 10° N
SL-16 R/B 3.7 22:28:31 10° NW 22:33:16 28° WSW 22:38:00 10° SSW
Cosmos 1943 3.4 22:29:10 10° NNW 22:34:46 63° ENE 22:38:50 19° SE
Cosmos 1674 4.4 22:31:56 10° SW 22:35:21 32° WNW 22:38:47 10° N
Cosmos 468 Rocket 4.2 22:30:35 10° NNW 22:35:41 66° WSW 22:39:28 18° S
Cosmos 1455 3.7 22:32:48 10° NNE 22:36:06 26° ENE 22:37:58 18° ESE
H-2A R/B 2.7 22:31:57 12° S 22:36:43 55° W 22:42:03 10° NNW
Cosmos 2058 3.6 22:35:48 22° SE 22:37:57 38° E 22:41:52 10° NNE
USA 234 3.3 22:33:12 10° NE 22:39:47 89° NNW 22:46:21 10° SW
CARTOSAT-1 3.5 22:38:35 21° SSE 22:41:28 86° WSW 22:45:49 10° NNW
Cosmos 2233 Rocket 4.0 22:36:23 10° N 22:42:37 71° E 22:47:01 20° SSE
SPOT 5 4.4 22:40:15 10° SSW 22:44:30 31° W 22:49:00 10° NNW
Cosmos 2151 3.2 22:45:29 23° SSE 22:47:56 56° E 22:52:11 10° NNE
Lacrosse 5 2.0 22:43:02 10° NW 22:48:04 64° SW 22:51:05 24° SSE
Cosmos 2228 Rocket 3.4 22:44:10 10° NNW 22:48:44 66° W 22:51:56 19° S
Cosmos 1703 3.8 22:50:01 27° SE 22:51:43 42° E 22:55:30 10° NNE
Meteor 1-11 4.3 22:49:00 18° S 22:53:20 69° E 22:59:08 10° NNE
Cosmos 1328 Rocket 4.1 22:49:33 10° NNW 22:53:47 51° W 22:56:48 18° SSW
Cosmos 1515 Rocket 3.7 22:51:48 10° NNW 22:56:08 67° W 22:58:48 22° S
RESURS DK-1 3.2 22:54:30 10° NW 22:58:28 42° WSW 23:00:38 23° S
SME Rocket 3.5 22:56:46 25° SE 22:58:43 51° ENE 23:03:11 10° N
Cosmos 371 Rocket 3.7 22:56:48 10° NNW 23:01:32 56° WSW 23:04:22 23° S
DMSP B5D2-2 4.4 22:57:08 10° N 23:02:20 65° WNW 23:07:30 10° SSW
H-2A R/B 2.3 23:00:30 24° S 23:03:02 65° WSW 23:07:17 10° NNW
Cosmos 1743 Rocket 3.9 23:00:07 16° SSW 23:03:34 62° W 23:07:53 10° N
Meteor 1-27 4.3 22:58:16 10° NNW 23:04:08 83° W 23:07:52 23° S
Abrixas rocket 2.1 23:01:35 10° WNW 23:04:49 64° SSW 23:05:44 41° SE
Cosmos 1151 Rocket 3.3 23:05:13 10° NNW 23:09:35 63° W 23:12:00 25° S
CZ-4B R/B 3.6 23:05:40 10° NNE 23:10:57 66° ESE 23:14:03 25° S
CZ-2C R/B 3.9 23:08:05 10° NE 23:12:26 25° E 23:14:18 20° ESE
Cosmos 540 Rocket 3.6 23:13:29 10° NNW 23:18:38 65° ENE 23:21:21 28° SE
Cosmos 2285 Rocket 4.0 23:12:31 10° NNW 23:18:54 79° ENE 23:22:43 26° SSE
Cosmos 1356 3.6 23:17:21 30° SSW 23:18:55 70° WNW 23:22:26 10° N
SL-19 R/B 4.4 23:17:38 10° NNE 23:22:54 71° WNW 23:27:22 16° SSW
CZ-4 R/B 3.9 23:18:21 10° NNE 23:23:17 80° WNW 23:26:25 22° SSW
Cosmos 1354 Rocket 4.1 23:21:20 28° S 23:23:55 57° ESE 23:29:04 10° NNE
PSLV R/B 4.1 23:23:59 31° SW 23:24:35 35° W 23:27:16 10° NNW
Cosmos 2034 Rocket 4.4 23:22:32 10° N 23:28:48 55° ENE 23:32:20 26° SE
DELTA 2 DEB (DPAF) 4.3 23:30:21 31° S 23:32:22 64° WSW 23:36:50 10° NNW
COSMOS 2406 4.3 23:27:39 10° NNW 23:32:56 38° NE 23:36:59 16° ESE
Terra 3.3 23:31:59 16° SW 23:34:56 28° W 23:39:04 10° NW
ERBS 3.0 23:32:13 10° WNW 23:35:22 36° SW 23:35:29 36° SW
Cosmos 1891 Rocket 4.5 23:31:22 10° N 23:37:28 70° E 23:40:39 29° SSE
Cosmos 1486 Rocket 4.4 23:33:16 13° SW 23:37:51 62° WNW 23:43:08 10° NNE
CZ-4C R/B 3.4 23:37:45 22° ESE 23:38:30 23° ESE 23:42:54 10° ENE
Cosmos 2263 Rocket 2.1 23:38:53 20° SSW 23:42:50 87° WNW 23:48:28 10° NNE
BREEZE-M DEB (TANK) 3.4 23:42:22 10° WNW 23:45:35 74° NNE 23:58:20 10° E
ALOS 2 3.0 23:45:40 32° SE 23:47:22 53° ENE 23:51:40 10° N
Cosmos 841 Rocket 4.5 23:42:44 10° NW 23:47:32 36° WSW 23:49:58 24° SSW
Cosmos 1626 3.2 23:46:13 23° SW 23:48:01 39° WNW 23:51:34 10° N
Sich 1 3.0 23:53:19 43° SSE 23:54:38 71° E 23:58:54 10° NNE
ATLAS 5 CENTAUR R/B 4.3 23:51:00 10° W 23:55:04 25° NNW 23:59:29 10° NNE
Cosmos 1869 3.2 23:51:29 10° NNW 23:55:27 80° W 23:56:30 47° S
